Wind_Speed
29 29 29 29 28 27 26 25 24 23 22 20 19 18 18 18 18 18 17 16 17 18 19 21 22 23 24 24 24 25 25 25 26 27 28 30 31 33 34 35 36 37 36 36 36 36 35 34 34 34 34 34 34 34 32 31 29 27 26 26 26 26 27 26 27 28 29 29 29 30 30 30 30 31 34 37 39 39 39 39 39 39 38 38 39 40 42 45
30 30 30 30 29 29 28 26 25 24 23 22 21 20 19 19 19 19 18 18 18 19 20 21 23 24 25 25 25 25 25 25 26 27 29 31 33 34 35 36 37 38 38 38 37 38 37 36 36 35 35 35 36 36 35 34 31 30 28 28 28 28 28 28 28 30 31 31 30 30 30 32 32 33 35 38 40 40 39 38 37 37 38 39 40 42 43 45
31 32 32 31 31 30 29 28 27 25 24 23 22 22 21 20 20 20 19 19 19 19 20 21 22 23 24 25 25 26 25 25 26 28 30 32 34 35 36 37 37 37 38 39 40 41 41 40 39 38 38 37 38 37 37 36 34 32 31 30 29 30 30 30 31 32 32 32 31 30 30 32 34 35 38 39 41 40 38 36 36 38 40 41 42 44 45 47
33 33 33 33 32 31 30 29 28 27 26 25 24 23 22 22 21 21 20 19 19 20 21 21 22 22 23 24 25 26 26 26 27 29 31 32 34 36 37 38 38 38 39 41 42 43 42 42 41 40 40 40 40 38 37 37 36 34 33 32 31 32 33 32 33 34 33 32 32 31 31 33 36 38 40 41 41 40 37 36 37 39 41 43 44 45 46 48
34 35 35 34 33 32 31 30 29 28 28 26 26 25 24 23 22 21 20 20 20 21 21 22 22 22 23 24 25 26 26 27 28 29 31 33 35 37 38 39 39 40 42 42 42 41 40 40 41 41 41 40 39 38 36 36 36 36 35 33 33 34 35 34 35 35 34 33 32 33 33 33 36 41 42 41 41 40 39 39 40 42 43 45 46 47 47 48
36 36 36 36 35 34 33 32 31 30 29 28 27 27 26 25 24 22 21 21 21 21 22 22 22 23 23 24 25 26 27 27 28 30 32 34 36 38 39 40 41 42 43 42 40 39 38 38 39 40 40 39 38 36 35 34 35 36 37 35 34 35 36 35 36 36 34 34 34 34 35 34 36 42 42 41 42 42 42 42 43 45 47 48 49 48 48 50
37 38 38 37 36 35 34 33 32 31 31 29 29 28 27 26 25 24 22 21 22 23 23 23 23 24 24 25 26 27 28 29 30 31 33 35 37 39 40 42 43 43 42 40 38 37 37 38 39 39 38 37 35 34 33 33 33 35 37 37 36 36 36 36 37 37 35 35 35 36 36 36 37 40 40 41 43 43 44 45 46 48 49 50 50 50 51 52
39 39 39 39 38 37 36 34 33 33 32 31 30 30 29 28 27 25 23 23 23 24 24 25 25 26 27 27 28 29 30 31 31 32 34 36 38 40 41 43 43 42 41 39 37 37 37 37 37 37 37 35 33 33 33 33 33 34 35 36 36 36 36 37 38 37 37 36 36 38 38 37 36 36 37 42 45 46 47 48 49 49 49 50 50 51 53 54
40 41 41 40 40 38 37 36 35 34 33 32 31 31 30 29 28 27 25 24 24 25 26 26 27 28 29 30 30 30 31 32 33 34 35 37 39 40 41 43 43 41 40 39 38 37 37 37 36 34 34 33 32 30 31 32 32 33 34 35 35 34 34 36 38 38 37 37 38 38 38 37 35 33 36 42 46 48 50 50 50 50 49 50 51 52 53 53
42 42 42 42 41 40 39 37 36 35 34 34 33 32 31 30 29 28 26 25 25 26 27 28 29 29 30 31 32 32 33 34 35 36 37 38 39 40 41 43 43 41 39 39 38 38 37 37 36 33 31 31 31 29 29 29 30 31 32 34 35 34 34 34 36 37 38 38 37 37 35 34 34 35 38 43 47 49 51 51 51 51 51 53 54 54 54 55
43 43 43 43 42 41 40 38 37 36 36 35 34 33 32 31 30 29 28 26 26 27 28 29 31 31 31 32 33 33 34 35 37 37 38 39 39 40 41 42 42 40 39 39 39 38 38 38 36 34 31 30 30 29 28 28 28 28 29 31 32 33 33 34 35 36 36 36 35 34 34 35 36 38 41 45 47 49 50 52 53 53 55 57 58 59 59 59
45 45 45 44 43 43 41 40 38 37 37 36 35 34 33 32 31 31 29 28 27 28 29 31 32 33 33 34 34 34 35 37 38 39 39 39 39 40 41 41 41 40 39 39 39 38 39 39 37 35 32 30 28 28 28 28 28 27 27 28 29 30 30 31 33 34 34 34 34 35 38 39 39 39 42 44 46 49 52 54 55 56 58 60 61 63 63 63
46 46 46 46 45 44 42 41 39 38 37 37 36 35 34 33 33 32 31 30 29 29 30 32 33 34 34 35 36 36 37 39 40 40 40 40 40 41 40 41 41 40 39 39 39 39 39 39 38 36 34 31 28 27 27 27 27 27 27 28 29 30 31 32 33 35 36 37 38 38 39 41 41 40 41 44 47 51 53 54 56 57 59 61 62 64 64 64
47 47 47 47 46 45 44 42 41 39 38 37 37 36 35 34 34 33 32 32 31 30 31 33 34 35 36 36 37 38 39 40 41 41 41 41 41 41 41 41 41 40 39 39 39 39 39 38 38 37 36 33 30 27 27 28 28 29 29 29 30 32 34 35 37 38 39 41 42 41 41 42 43 43 44 45 49 52 54 55 57 58 60 62 63 64 64 66
48 48 48 48 48 47 45 43 42 41 39 38 37 37 36 35 35 35 34 34 33 32 32 33 35 37 38 38 38 39 40 41 41 41 41 42 41 41 41 42 42 40 39 39 39 39 39 38 37 38 37 35 32 30 29 29 30 31 32 32 32 33 33 35 37 39 41 42 43 43 43 43 44 45 46 47 50 52 54 56 58 60 63 65 65 65 66 67
49 49 49 49 49 48 46 44 43 42 40 39 38 37 37 37 36 35 35 36 34 33 33 35 36 38 40 40 40 41 41 41 41 41 42 42 42 42 42 43 43 41 39 38 39 39 39 38 38 38 37 37 35 35 34 33 33 33 35 35 35 35 34 34 35 38 40 41 42 43 44 45 45 44 46 49 52 54 56 58 61 63 66 67 67 67 68 68
49 49 49 49 49 48 47 45 44 43 42 41 39 38 38 38 37 36 36 36 35 35 35 36 37 39 41 42 41 42 42 41 41 42 43 43 43 43 44 44 44 41 39 39 39 40 39 38 38 38 39 38 38 38 38 38 37 36 36 38 38 38 37 36 36 37 39 40 42 43 45 47 47 46 48 51 54 56 59 61 63 64 66 67 68 68 69 69
49 49 49 49 49 48 47 46 45 44 43 42 41 39 38 38 37 37 37 37 35 35 37 39 39 40 43 43 42 42 41 41 42 42 43 43 44 45 45 44 43 40 39 40 39 40 40 39 39 40 40 40 39 39 38 39 39 39 39 39 40 40 40 39 38 38 39 41 43 45 47 49 49 49 50 52 56 59 61 62 62 63 65 68 69 69 69 67
49 49 49 49 49 48 47 46 45 45 44 43 42 41 39 39 38 38 39 38 36 35 38 41 41 42 43 44 43 42 42 42 43 43 43 44 45 46 45 44 42 39 38 39 39 39 40 40 40 40 40 40 40 40 40 40 41 42 42 42 42 41 42 42 41 41 43 44 45 47 48 50 52 52 52 55 58 60 61 61 61 63 66 68 69 68 67 67
48 49 49 49 49 49 48 47 46 46 45 43 42 41 41 40 39 39 39 39 37 37 39 42 43 44 44 45 45 44 43 43 44 44 44 45 46 46 45 43 42 39 38 39 39 41 41 40 41 41 41 41 40 40 40 41 42 43 43 45 44 42 43 45 44 45 46 46 47 49 50 51 54 54 54 56 58 59 60 61 61 64 66 68 68 67 67 69
48 49 49 50 49 49 48 47 46 46 45 44 44 42 42 41 40 40 41 40 39 39 41 43 44 46 46 46 46 45 45 45 45 45 45 46 47 46 44 42 41 40 40 39 39 42 42 42 42 42 42 42 41 40 41 41 42 43 44 44 45 44 43 46 47 47 47 48 50 52 51 53 56 55 56 57 59 60 61 62 64 66 68 70 70 70 70 73
48 49 49 49 49 49 49 48 47 46 45 45 45 44 43 42 41 41 41 43 42 41 43 45 46 47 48 47 47 46 46 47 46 46 46 47 48 46 44 42 41 40 41 41 41 42 43 42 43 42 43 43 42 41 41 42 43 43 43 43 44 45 45 47 49 49 50 51 51 51 50 51 55 57 58 62 63 63 64 66 68 69 71 72 73 73 74 76
48 48 49 49 49 49 48 48 47 46 46 46 46 45 44 43 42 42 41 42 45 46 48 49 49 50 49 49 48 47 47 47 47 47 48 48 48 47 45 43 42 41 41 42 42 43 44 43 43 43 44 44 43 41 41 42 44 45 44 43 44 46 46 47 49 50 50 51 51 50 48 49 54 58 63 67 67 66 69 70 70 71 73 74 74 74 75 78
48 48 48 48 49 49 48 48 48 47 47 47 46 46 46 45 44 43 42 40 44 49 51 52 52 52 51 50 49 47 47 47 47 48 49 49 49 48 45 43 42 41 41 42 42 43 43 43 43 45 47 47 46 44 42 42 44 46 47 46 45 47 48 48 49 49 49 52 54 54 51 50 54 60 65 68 67 68 71 72 72 73 74 74 73 74 77 79
48 48 48 48 48 48 48 48 48 48 48 47 48 48 47 47 46 45 44 42 43 49 52 53 54 53 52 51 49 48 47 47 48 49 50 50 50 49 46 44 42 41 42 42 43 44 44 45 46 47 49 49 48 47 46 44 45 47 49 50 50 50 51 52 52 50 50 53 56 59 58 53 54 60 65 66 67 70 74 74 74 75 75 74 74 77 80 81
48 48 48 48 48 49 49 49 49 49 49 49 49 49 49 49 48 47 46 45 45 49 53 54 55 54 53 51 49 48 47 48 49 50 51 51 50 49 47 45 42 42 43 43 44 45 45 47 48 48 49 50 49 49 48 48 47 48 51 52 53 54 55 56 56 55 55 55 57 64 65 57 54 60 65 68 71 74 76 76 76 77 77 77 78 81 83 83
49 49 49 49 49 50 50 50 51 50 51 51 51 51 52 51 50 49 49 47 45 49 53 54 55 54 53 51 50 48 48 49 50 51 52 51 51 50 48 47 45 44 45 44 46 47 46 47 48 48 49 51 51 51 51 50 50 50 52 53 55 56 56 57 58 58 59 58 59 66 68 61 56 60 67 72 75 77 78 79 79 80 80 81 83 84 85 87
51 51 50 50 50 51 51 52 53 53 53 52 52 53 53 52 51 50 50 47 44 48 53 54 54 54 52 51 50 49 49 51 52 52 52 51 51 51 50 49 48 47 47 46 46 49 47 47 48 48 49 50 52 53 53 53 53 53 54 54 56 56 57 59 59 59 60 58 59 64 67 63 58 62 71 75 76 78 79 80 81 82 83 84 85 85 86 88
52 52 52 52 52 52 53 53 53 54 54 53 53 53 53 53 52 52 51 48 46 49 52 53 54 53 52 52 50 50 51 53 53 52 52 52 52 52 51 50 50 49 50 48 47 48 48 48 48 48 48 50 52 53 54 55 55 56 56 56 57 58 59 60 59 59 58 56 58 62 66 65 63 66 74 76 76 78 79 81 82 83 84 85 84 85 87 88
53 53 53 53 53 54 54 54 54 54 54 54 54 54 54 54 53 53 51 50 50 51 51 52 53 53 52 52 51 52 53 54 54 53 52 52 53 54 53 53 53 51 52 51 49 47 48 48 48 48 48 50 52 53 54 55 57 58 59 58 58 59 60 60 59 60 59 56 58 63 67 70 69 69 74 76 76 79 81 83 83 83 84 84 83 84 86 87
55 55 55 55 55 56 56 56 56 56 56 56 56 55 54 54 53 52 51 51 53 52 51 53 53 53 53 52 53 55 55 55 55 54 53 53 54 55 56 56 56 53 53 55 52 48 49 49 48 49 50 51 54 54 55 57 60 61 61 60 60 60 61 60 61 63 62 60 61 65 69 71 71 71 75 77 78 81 84 84 83 84 84 83 83 85 87 90
57 56 57 57 58 58 59 59 59 59 58 58 56 54 54 53 52 51 52 54 54 52 53 55 54 54 54 54 56 57 57 57 56 55 54 54 55 57 59 60 61 58 56 56 54 51 49 50 51 52 52 54 56 56 57 60 62 64 64 65 66 66 65 63 65 67 66 64 65 69 71 71 71 74 77 79 81 84 85 84 85 85 84 84 86 89 91 94
58 58 58 58 58 59 60 60 60 59 59 58 56 53 53 53 50 50 53 56 56 54 55 56 55 55 56 56 58 58 58 58 57 57 56 55 56 58 61 63 66 65 61 58 55 51 47 48 54 55 55 57 59 59 60 63 65 66 66 69 72 74 72 68 69 71 69 68 69 71 73 72 71 74 77 80 84 86 86 86 86 86 87 87 89 92 94 96
61 60 60 59 60 60 60 60 60 59 58 57 55 53 52 51 50 52 55 57 58 56 56 57 57 57 58 58 59 60 61 60 59 59 59 57 58 59 62 66 68 70 68 62 57 51 46 48 55 58 57 59 61 63 65 67 68 68 69 73 75 78 78 74 73 73 71 70 69 70 73 73 73 75 78 83 87 89 89 88 88 88 89 89 91 94 97 98
63 63 62 62 62 63 63 63 61 61 60 58 56 55 52 51 52 55 56 57 59 58 57 58 58 58 59 60 61 62 64 62 60 61 61 60 60 60 64 68 70 72 72 68 62 55 51 53 59 61 61 63 65 68 70 73 74 73 74 77 78 79 80 78 76 75 74 72 68 67 72 74 74 76 80 85 89 91 91 90 90 90 89 90 93 96 99 100
65 65 65 65 65 66 67 66 65 64 63 61 60 57 54 53 55 58 59 59 60 60 59 60 59 59 60 61 62 64 66 65 62 62 62 62 62 62 66 69 72 75 75 73 69 64 60 60 62 65 66 67 70 72 74 77 79 79 79 80 81 81 82 82 79 76 77 76 70 68 73 75 75 78 82 87 90 91 91 91 91 91 90 92 95 98 101 102
68 67 66 66 68 69 69 68 68 67 66 65 63 60 57 56 58 62 63 62 63 63 63 63 62 62 63 63 64 66 68 67 65 64 63 63 63 63 67 71 74 77 77 77 75 73 71 66 64 68 71 72 74 76 78 80 82 83 82 83 84 84 84 84 82 77 78 80 76 73 74 74 76 80 85 89 92 91 91 93 93 92 93 96 98 102 103 104
72 70 68 69 71 72 71 71 70 70 69 68 65 63 61 60 62 66 67 66 66 66 66 66 66 66 66 66 67 68 69 68 66 65 65 65 65 66 69 73 76 78 79 79 79 78 78 73 68 70 74 75 77 79 81 82 84 84 85 85 86 86 86 84 82 79 81 84 82 77 75 75 78 83 88 91 92 92 93 95 95 95 97 100 103 106 106 106
75 73 72 73 76 76 74 74 74 73 71 68 65 65 65 64 66 69 70 69 70 69 69 69 70 69 67 68 69 70 70 68 66 67 68 68 68 70 72 75 78 80 82 82 82 82 83 80 73 72 75 77 79 81 83 84 86 86 86 86 86 88 87 84 81 81 85 89 87 84 81 78 78 83 90 93 92 93 96 98 98 98 101 104 106 108 108 108
78 77 74 76 81 81 79 78 76 74 71 68 66 67 67 68 69 71 73 74 73 72 72 72 72 71 70 71 71 72 71 69 68 70 71 71 73 73 74 76 79 82 84 84 85 85 87 86 80 76 78 79 80 84 84 85 87 87 86 86 87 88 87 84 80 81 89 93 90 91 88 80 80 87 91 92 93 96 100 100 100 102 104 106 108 109 109 110
82 80 76 79 84 84 83 81 77 75 73 70 69 70 72 72 72 73 75 77 76 75 75 75 73 73 73 74 75 75 74 72 71 74 75 76 78 76 76 78 82 84 86 86 87 88 90 90 86 82 81 81 82 84 84 85 86 86 85 85 87 87 87 86 82 83 90 92 91 96 91 81 85 93 93 94 98 100 101 101 102 105 106 108 110 110 111 113
84 82 80 83 86 87 86 82 78 76 75 73 74 76 76 75 74 75 77 79 78 77 77 77 75 76 77 78 80 79 79 77 76 78 80 80 79 78 79 82 84 86 88 88 89 90 92 93 90 86 83 83 85 85 85 86 86 85 84 84 86 85 85 87 86 87 91 91 93 98 92 84 89 94 93 97 102 102 102 103 106 108 108 109 112 113 114 116
85 84 83 84 86 87 87 83 79 79 78 77 79 79 78 77 77 77 79 80 79 79 79 78 78 80 81 82 83 83 83 83 81 83 85 82 80 82 84 86 88 89 91 91 91 93 95 95 92 88 85 85 86 87 88 89 88 86 84 85 85 85 85 87 89 92 93 92 96 98 92 88 92 94 95 101 103 102 103 106 108 110 110 112 114 115 117 119
85 85 84 84 85 86 85 82 81 82 82 82 82 80 80 80 79 79 80 81 81 81 80 78 80 83 84 85 86 86 87 87 87 87 87 84 84 86 88 90 91 92 93 93 94 95 96 94 93 91 89 87 85 86 89 89 89 87 86 86 86 86 87 88 92 97 96 94 97 97 93 92 95 96 99 104 104 103 106 109 111 112 113 115 116 117 118 121
87 85 82 81 83 84 82 81 83 84 83 84 84 82 82 81 79 80 82 82 81 81 80 80 82 84 85 86 87 87 88 90 90 89 87 87 88 89 92 93 93 93 94 95 96 96 95 94 93 93 94 92 88 89 91 91 90 90 88 88 88 88 90 92 97 99 98 99 97 94 95 97 97 100 105 107 106 107 110 112 114 115 117 118 118 119 120 122
89 85 81 80 82 83 81 81 84 83 82 85 85 83 81 80 78 80 82 82 81 82 83 83 83 84 85 86 88 88 88 90 92 90 88 90 92 93 94 94 94 94 95 96 96 96 95 93 91 94 96 94 93 95 97 96 95 94 92 92 91 91 93 96 99 99 101 104 95 89 97 101 98 103 111 110 109 112 114 116 117 119 121 120 120 121 123 124
90 85 81 82 84 83 80 80 82 82 84 88 86 80 78 78 78 79 80 81 82 84 84 82 82 84 86 88 90 90 89 90 92 90 90 93 94 95 94 93 93 93 94 95 95 96 96 93 91 94 96 94 94 98 99 99 99 97 97 96 93 93 96 99 101 101 104 105 95 91 101 104 100 107 114 112 113 116 117 119 120 122 123 123 123 124 125 127
92 87 84 86 87 84 81 82 85 87 88 89 85 80 78 78 79 80 81 83 85 85 85 84 82 84 87 89 92 92 89 90 91 91 93 95 95 94 92 90 91 91 92 94 94 95 96 93 91 95 97 94 95 99 100 101 102 100 100 98 96 97 101 101 101 102 104 103 98 98 105 104 103 111 115 115 117 119 119 121 123 124 125 126 126 126 128 130
94 91 89 90 91 89 87 87 90 90 88 88 87 82 79 80 81 82 84 87 88 87 87 86 83 84 89 92 94 91 87 89 92 92 94 96 94 92 90 89 90 91 92 93 94 95 96 94 92 96 98 95 96 100 101 102 104 103 101 100 101 103 104 103 102 102 104 104 104 106 106 102 106 114 116 117 121 121 121 123 124 126 127 128 128 129 131 132
97 96 96 97 96 93 91 90 90 90 89 90 87 81 80 83 83 85 90 91 89 88 89 88 85 88 93 95 94 90 87 91 97 95 95 96 94 91 91 90 91 92 93 94 94 96 98 96 95 98 100 97 97 101 103 104 106 104 99 101 107 108 106 105 105 105 108 109 109 108 106 104 108 115 117 119 122 122 123 124 125 127 129 130 131 131 133 134
100 101 102 104 101 96 95 94 92 92 90 86 83 81 84 87 86 91 97 93 89 90 91 90 90 93 97 96 92 89 89 96 99 96 95 96 94 93 93 92 92 94 94 95 96 98 100 99 99 101 103 100 99 102 104 106 107 103 99 105 111 111 109 109 109 110 112 112 110 108 108 108 112 116 117 119 122 123 125 126 127 129 131 132 132 134 135 136
104 105 105 107 106 102 99 97 96 95 88 82 82 85 87 87 89 96 99 94 90 92 94 95 96 98 97 94 90 90 94 99 99 97 96 96 95 94 94 94 94 95 95 97 99 100 101 102 103 104 105 104 103 104 107 109 107 103 103 108 112 112 112 112 113 113 113 113 112 112 112 114 116 118 119 120 122 124 126 127 129 131 132 133 134 135 136 137
Wind_Direction
219 220 220 219 220 221 222 224 227 232 236 239 239 239 242 246 249 252 256 263 271 279 286 291 295 300 305 309 312 315 319 323 327 328 330 330 329 329 329 329 330 330 332 333 333 332 329 326 324 324 324 324 324 324 322 316 309 304 302 300 300 302 304 305 306 305 305 307 309 311 313 314 315 317 318 318 318 320 322 324 327 330 332 334 335 334 333 331
220 221 220 220 220 221 223 224 227 230 234 238 240 240 243 247 250 253 258 263 270 276 282 288 291 295 300 305 309 312 316 321 325 328 329 329 328 328 328 329 330 330 331 330 329 328 326 323 320 319 318 317 317 318 318 316 309 301 297 297 297 297 298 301 300 300 302 304 306 307 309 311 314 317 318 318 317 319 322 325 328 330 331 331 331 331 329 329
221 222 222 221 221 222 224 225 227 230 233 237 241 242 243 247 251 254 259 264 269 275 281 285 288 292 297 301 305 309 315 319 324 327 329 328 327 327 327 328 329 328 328 327 326 325 322 319 317 315 314 313 312 313 313 313 311 303 295 293 294 293 295 299 298 297 300 302 305 306 308 312 316 319 320 319 317 319 322 325 328 328 328 328 328 327 327 329
221 223 223 222 222 223 224 226 227 229 232 235 240 243 244 246 250 254 260 265 270 275 280 283 286 290 294 298 303 308 313 318 322 326 326 326 326 325 325 326 326 326 325 325 324 323 321 318 316 314 312 311 310 311 311 310 309 306 298 291 290 291 294 297 298 299 301 303 305 308 311 316 319 320 321 319 317 318 321 325 327 326 325 325 325 326 328 330
222 223 225 224 223 224 225 226 228 230 232 235 239 243 246 248 250 254 260 266 271 274 278 281 284 288 291 295 300 306 312 316 320 323 324 324 323 323 323 324 324 324 324 324 324 322 321 319 318 316 314 312 310 310 311 309 308 305 301 294 287 287 291 295 298 300 302 304 307 309 313 319 320 319 321 319 316 316 320 325 325 324 324 324 325 327 330 330
223 224 226 226 225 225 226 227 228 230 232 235 239 243 247 250 252 255 260 266 272 275 278 281 284 287 289 293 298 304 309 313 316 319 321 321 321 321 322 323 324 324 324 324 324 324 323 322 321 320 318 316 313 312 311 310 307 304 302 299 291 287 289 293 297 300 302 304 307 311 315 320 319 318 320 317 314 316 321 324 323 322 323 325 327 329 330 329
224 225 226 227 227 227 228 229 230 231 233 235 239 243 246 250 254 256 260 265 271 276 279 282 285 287 290 293 298 302 307 310 314 317 319 319 320 320 321 323 324 324 323 322 324 325 324 325 325 324 321 319 316 314 312 310 308 303 302 302 296 290 289 293 297 300 302 304 306 310 313 317 317 318 318 314 313 317 321 322 321 322 324 326 328 329 329 327
225 226 227 228 229 229 230 230 232 233 234 236 239 243 246 250 254 257 259 263 269 275 280 283 286 289 292 295 298 302 306 309 311 314 316 318 319 320 320 322 324 324 322 322 324 325 325 326 327 326 324 322 318 315 313 312 311 308 306 305 302 295 290 292 296 299 301 302 305 308 312 315 316 318 317 313 315 318 319 320 321 323 325 326 327 327 325 323
226 227 228 229 230 231 231 232 233 234 236 238 240 243 246 250 254 257 259 264 269 274 279 283 287 290 293 296 299 302 305 308 309 311 314 316 317 318 320 322 324 323 321 322 324 325 327 328 328 327 326 325 323 320 317 317 318 318 316 313 310 304 295 293 294 297 300 302 304 308 313 315 316 320 317 314 316 318 319 320 321 323 325 326 326 326 325 325
226 227 229 230 231 232 233 233 234 235 237 239 241 244 247 250 254 257 259 264 269 274 279 283 287 289 293 296 299 302 305 307 308 309 311 314 316 317 319 321 322 322 321 322 323 325 327 328 329 328 328 327 325 325 323 322 323 322 320 317 316 312 305 299 297 299 302 304 307 312 316 317 318 320 317 315 317 318 319 321 322 324 325 326 326 327 328 328
227 228 229 230 232 233 234 235 235 236 238 240 242 245 248 251 254 257 260 264 268 274 279 283 287 289 292 296 298 301 304 305 306 307 309 312 314 315 317 320 321 320 319 320 322 324 326 327 329 329 328 327 325 324 325 326 326 325 323 321 319 316 312 308 305 304 306 308 312 316 318 317 318 319 317 317 319 320 321 322 324 325 325 326 327 327 328 328
229 228 229 231 232 234 235 236 237 237 239 241 243 246 249 252 255 259 261 264 268 273 279 283 287 289 292 295 298 300 303 305 305 305 307 311 312 314 316 318 318 318 317 318 320 321 323 324 325 327 327 326 324 323 325 327 329 329 328 326 323 320 318 315 312 311 311 312 314 317 318 319 320 320 319 320 321 322 323 324 325 324 323 324 325 325 325 326
230 229 230 231 233 234 236 237 238 238 240 242 244 247 250 253 257 260 263 265 269 273 278 283 287 289 292 294 297 300 303 304 304 304 306 309 311 312 315 316 316 314 315 316 317 318 320 320 322 323 324 324 322 322 323 325 327 328 328 327 325 322 321 319 317 316 315 314 316 318 319 320 321 321 321 321 322 323 324 323 323 321 321 321 321 322 323 323
232 231 231 231 233 235 236 238 239 240 241 243 245 248 251 254 258 261 264 267 270 274 279 283 286 289 291 293 297 299 302 304 303 303 305 308 310 312 313 313 313 311 311 313 315 316 317 318 318 319 320 319 318 317 318 320 321 321 322 322 320 319 319 319 318 317 316 316 317 320 321 321 323 323 322 322 322 322 321 320 319 319 319 319 319 321 321 321
234 233 232 232 233 235 237 238 239 241 242 244 245 249 252 255 258 262 265 268 271 275 279 282 285 289 291 294 296 299 302 303 302 302 304 307 309 311 311 311 311 308 307 311 313 314 315 315 316 317 317 316 314 313 313 314 315 315 316 315 315 315 315 316 316 315 314 315 317 320 322 323 324 323 322 322 321 319 318 317 317 318 318 318 319 320 320 320
236 235 234 234 235 236 238 239 240 242 243 245 247 249 252 256 259 262 266 269 273 277 280 282 285 288 291 294 296 299 301 302 301 302 304 306 308 309 309 309 309 306 304 307 310 311 312 314 314 314 314 314 314 313 312 311 311 312 312 312 312 311 312 313 313 312 312 314 316 319 321 321 320 320 320 321 320 318 317 316 317 318 318 318 319 320 320 320
238 237 237 236 236 237 239 240 241 243 244 246 248 250 252 256 259 262 265 269 273 277 280 282 285 288 290 293 296 298 300 300 301 302 303 305 306 307 308 308 308 305 302 305 308 310 311 313 313 313 314 314 314 312 311 310 309 309 308 308 308 308 309 310 310 309 310 312 313 315 317 317 315 316 318 319 318 317 317 318 318 318 317 317 318 319 319 319
242 240 239 238 238 239 240 241 242 244 246 247 249 251 253 256 259 262 265 268 272 277 280 282 284 287 290 292 295 296 298 299 300 301 302 303 304 306 307 307 307 304 303 306 309 310 312 313 314 314 313 312 311 309 308 307 306 305 304 304 305 305 305 306 307 308 308 311 309 310 315 314 312 314 317 318 317 316 317 317 317 316 315 316 316 317 317 319
244 243 242 241 241 241 242 243 243 245 246 248 250 253 255 257 259 262 265 268 272 276 279 282 284 286 288 291 293 295 297 299 300 299 299 300 303 305 306 307 306 303 303 306 309 310 312 314 314 314 313 311 309 308 307 306 303 302 302 303 303 303 304 304 306 307 308 309 307 308 312 312 311 313 315 316 315 315 315 315 314 314 314 315 316 317 318 320
246 245 245 244 243 243 244 244 245 246 248 249 251 254 256 258 260 263 266 270 273 276 278 281 284 285 287 290 292 293 295 297 297 296 297 299 302 305 306 306 305 302 303 306 309 310 311 312 313 313 313 311 310 309 308 307 305 304 303 303 303 302 302 302 304 306 307 308 307 308 311 310 309 312 314 314 314 314 315 314 314 315 316 316 317 318 319 321
248 247 246 245 245 245 245 246 247 248 249 251 253 255 257 260 262 265 269 272 275 277 279 280 282 283 285 287 289 290 292 293 294 294 295 298 302 305 305 305 304 302 303 305 307 308 309 311 312 312 313 312 311 309 309 308 307 306 304 304 302 301 301 301 302 304 306 307 308 308 310 310 310 312 314 315 315 315 315 315 316 317 317 318 318 318 319 321
250 249 248 247 247 246 247 248 249 250 251 253 256 258 260 262 264 267 270 274 277 279 279 279 280 282 284 285 287 288 289 291 292 293 295 298 301 304 304 303 302 302 303 305 306 307 307 309 310 311 312 311 310 309 308 308 307 306 305 305 304 303 303 302 303 305 306 307 309 311 313 312 312 315 315 316 317 316 316 317 318 318 317 317 317 318 319 320
252 251 250 249 248 248 249 250 251 252 254 255 257 260 262 264 266 268 271 274 278 280 281 281 282 283 285 286 288 288 289 291 292 293 295 298 301 303 303 302 302 301 301 303 304 305 306 308 309 310 311 310 310 309 309 308 308 308 308 307 306 305 305 305 305 307 308 309 311 313 314 314 315 316 315 317 318 318 317 318 317 316 315 315 316 317 319 320
254 253 252 252 251 251 251 252 254 255 256 257 260 262 263 265 267 269 272 275 277 279 281 282 283 284 286 288 289 289 289 290 291 293 296 298 300 301 300 300 300 300 301 302 303 304 304 305 307 309 310 310 310 310 310 310 310 310 309 308 306 305 305 307 308 310 311 311 313 313 313 317 318 317 316 317 317 317 316 316 314 313 314 314 316 319 320 321
255 255 255 254 254 254 254 255 256 257 258 260 261 263 265 266 267 269 272 274 276 278 280 281 282 284 286 288 288 288 288 289 291 293 296 298 299 299 299 298 297 297 299 300 302 303 304 305 307 309 309 309 309 310 309 309 309 309 309 308 307 307 307 308 309 311 311 312 313 310 310 318 319 315 313 313 313 313 313 312 312 313 314 315 318 320 319 321
255 255 255 256 256 256 257 258 258 259 260 261 263 264 266 267 268 270 272 274 276 278 279 280 281 283 285 286 286 286 287 289 291 294 296 297 298 297 297 295 294 295 297 299 300 301 303 305 306 308 308 308 308 308 308 308 307 308 309 309 308 308 308 308 309 310 310 313 313 308 309 317 317 312 310 309 310 312 312 312 314 315 316 317 319 319 319 320
256 256 256 256 257 257 258 258 259 260 261 262 264 265 266 268 270 272 273 274 277 278 278 279 280 282 284 284 285 285 286 288 291 293 294 295 296 296 295 294 293 294 295 297 299 300 303 305 306 308 308 308 308 307 307 306 305 306 307 308 307 306 306 306 308 309 310 313 312 308 310 316 317 313 309 309 312 313 313 314 315 316 317 318 318 318 319 319
256 256 257 257 257 257 258 258 259 260 261 262 264 266 267 269 271 272 273 276 278 278 277 279 280 282 282 283 283 285 286 288 291 292 293 294 294 294 294 293 293 293 294 296 298 299 303 305 306 306 306 308 307 307 307 306 305 305 304 305 304 305 305 305 308 309 309 312 311 308 310 314 317 314 310 311 314 314 314 315 316 317 317 317 317 317 318 318
257 257 257 257 258 258 258 259 260 261 262 263 264 266 268 269 271 272 274 277 278 276 277 279 280 280 281 281 282 284 286 288 290 290 291 292 293 293 292 292 293 294 295 296 297 300 303 304 304 305 306 307 307 307 307 306 305 304 303 304 303 304 304 304 306 306 308 311 310 309 311 313 316 315 312 313 314 313 314 315 315 316 316 316 316 317 318 318
258 258 258 258 259 259 259 260 260 261 262 263 264 266 268 270 272 273 275 277 276 275 276 277 278 278 279 280 282 284 286 288 289 288 289 291 292 291 291 291 292 294 295 295 297 300 302 303 303 303 304 306 306 306 306 306 306 305 305 304 304 303 302 303 305 306 308 312 311 312 313 313 315 315 313 314 313 311 312 313 314 315 315 315 315 317 318 318
259 259 259 259 259 260 260 261 261 262 263 264 266 267 269 271 273 276 277 277 275 276 277 276 277 277 278 280 282 284 285 287 287 286 288 289 290 291 291 291 292 292 293 295 297 300 301 302 301 301 303 305 305 306 307 308 308 307 307 306 305 304 303 305 307 307 310 313 312 312 312 312 314 313 312 313 311 310 312 313 313 314 314 315 316 318 318 317
258 259 260 260 261 261 262 262 263 263 265 266 267 269 271 273 276 279 278 276 275 276 277 278 278 278 279 281 282 283 285 285 285 285 286 287 289 290 291 292 291 291 292 293 296 298 300 300 299 299 302 304 305 306 308 309 308 307 308 307 307 305 304 306 306 306 309 309 309 310 309 311 312 311 312 312 310 310 311 312 313 314 315 316 317 318 317 317
258 259 260 261 262 263 263 264 264 265 266 266 268 270 272 274 277 278 277 277 277 277 277 278 278 279 280 281 282 282 283 283 283 283 283 285 288 289 290 291 291 292 292 292 294 295 296 296 296 299 302 303 304 306 308 308 307 307 307 307 308 306 304 304 304 305 306 306 308 308 308 310 311 312 313 311 310 311 311 312 313 315 316 317 317 317 317 317
258 258 259 260 262 262 263 264 264 264 265 266 267 269 272 276 278 277 276 277 279 279 278 278 278 279 280 280 281 281 281 282 282 282 281 283 286 288 290 290 290 291 292 293 294 293 293 293 295 299 301 301 304 306 307 306 306 307 307 306 306 306 305 305 304 305 305 306 308 309 309 311 313 313 313 311 310 311 311 312 314 315 316 316 317 317 317 318
258 259 259 260 261 262 262 262 263 263 263 264 265 267 271 275 275 274 274 275 277 278 278 277 278 279 279 280 280 281 281 281 281 281 281 283 285 287 288 288 289 290 291 294 295 295 294 295 298 300 301 302 304 307 306 305 305 306 306 305 305 305 305 305 305 306 305 305 308 309 310 312 313 314 313 311 310 310 311 314 315 316 316 316 317 318 318 319
258 259 260 260 261 261 262 262 262 262 262 263 264 266 270 273 272 272 272 272 274 276 276 277 278 278 278 278 279 280 280 281 280 279 280 282 284 286 286 287 288 289 291 293 296 296 296 297 299 301 302 304 305 306 305 305 305 305 305 305 305 305 306 306 306 307 305 305 307 309 310 312 313 313 312 311 309 310 313 315 315 316 317 318 319 320 320 321
256 257 259 260 261 261 262 262 262 262 262 263 264 266 270 271 272 272 271 271 273 275 276 277 278 278 278 278 278 278 279 280 280 280 281 282 283 284 285 286 287 288 290 292 295 296 296 298 300 302 303 304 305 305 304 304 304 304 305 305 305 306 306 306 306 307 305 304 306 310 311 312 314 315 312 309 309 311 314 314 315 317 319 320 321 321 321 323
256 256 257 259 259 259 260 260 261 261 262 263 265 267 269 270 271 271 272 272 274 275 277 278 278 278 278 279 278 278 278 279 280 281 282 282 283 284 284 284 286 287 289 291 293 294 295 297 300 302 303 304 304 303 303 302 303 304 305 305 305 306 305 306 307 307 306 305 307 310 312 313 317 316 311 308 310 313 313 314 316 319 320 320 321 321 321 323
258 257 258 259 259 259 258 259 259 260 262 265 267 268 269 270 269 271 272 273 274 276 277 278 279 279 280 279 279 279 279 280 281 282 282 283 283 283 283 284 286 287 288 290 291 293 294 296 300 302 302 302 302 301 301 301 302 303 304 304 305 305 304 306 306 306 306 306 309 310 310 315 318 314 310 310 313 313 313 315 318 319 320 320 320 320 321 323
259 259 259 260 261 260 259 259 260 262 265 268 269 270 271 270 270 272 273 274 275 277 278 278 279 281 281 280 280 280 280 281 282 282 283 284 283 283 284 285 286 287 288 289 291 292 293 295 299 300 300 300 300 300 300 301 302 302 303 304 304 303 304 305 304 305 305 306 310 309 310 317 319 311 310 313 314 313 314 317 319 319 319 319 318 319 322 324
258 259 259 260 261 262 262 261 262 264 265 267 269 270 270 270 271 273 274 276 277 277 278 279 279 280 281 280 280 280 281 282 282 283 283 283 283 284 285 286 286 287 288 289 290 291 293 295 298 299 300 299 299 299 301 301 301 302 303 304 303 303 304 304 304 304 303 306 310 308 310 319 317 310 313 315 314 314 316 318 319 318 318 318 319 321 324 326
258 258 258 259 261 262 263 263 263 264 265 266 268 268 269 269 271 272 274 276 277 278 278 279 280 280 280 280 280 281 281 282 282 282 281 281 283 285 286 286 286 286 287 288 290 291 293 295 297 299 299 299 299 300 301 300 300 301 302 302 302 304 305 306 306 305 304 307 309 307 312 319 314 311 316 315 313 315 318 319 318 318 318 319 320 323 325 327
257 257 257 258 260 262 263 264 264 264 265 266 266 267 268 269 270 271 273 274 275 276 277 278 279 279 280 280 280 280 281 281 280 280 280 282 284 285 285 284 285 285 286 288 290 292 293 295 298 298 298 298 299 300 300 299 300 301 302 302 303 305 306 307 307 305 306 308 307 308 315 317 312 314 317 314 313 317 318 318 319 319 319 320 322 325 326 327
257 256 256 257 259 261 262 264 265 265 265 265 265 266 268 268 269 271 272 272 273 274 275 276 278 278 279 279 280 280 280 280 279 279 280 282 284 284 283 283 284 285 287 290 291 292 294 296 297 298 297 297 299 299 299 299 300 301 301 301 303 305 306 307 306 305 307 308 308 312 317 315 314 317 316 312 314 318 318 318 319 320 320 321 323 325 326 327
258 258 259 259 260 261 262 263 263 263 264 264 265 265 266 267 269 270 271 272 273 274 275 276 276 277 278 279 279 279 279 279 279 279 281 283 283 282 282 283 285 287 289 290 291 292 294 296 297 298 297 298 300 299 298 299 300 300 301 303 305 306 307 308 305 305 308 308 310 317 317 314 317 318 313 312 316 318 318 318 320 321 321 322 324 325 326 326
260 261 262 263 263 263 263 262 262 263 264 264 264 264 265 267 269 270 272 273 275 275 275 275 275 276 277 277 277 277 278 279 280 281 283 283 283 283 283 285 288 289 290 291 292 293 294 295 297 297 297 298 300 300 300 300 301 302 304 305 306 308 308 306 304 307 309 308 313 319 315 314 319 316 311 314 318 318 318 318 320 321 322 323 324 325 325 326
262 263 264 263 263 263 263 264 265 266 264 264 264 266 268 270 271 272 273 275 275 274 274 275 275 275 276 276 276 277 278 280 281 283 284 284 284 284 286 288 289 290 291 292 293 294 294 295 296 296 296 298 299 299 299 300 301 303 304 305 308 309 306 303 306 309 308 308 314 318 313 315 318 313 311 315 318 317 317 318 320 321 322 324 324 325 325 325
264 265 264 264 263 264 264 264 264 263 263 265 267 269 270 271 272 273 274 274 274 274 275 274 274 275 276 276 276 277 279 281 283 284 284 284 285 286 288 290 290 291 292 292 293 294 294 296 297 295 295 297 297 298 299 300 301 302 303 306 309 306 302 304 308 308 307 308 314 314 312 316 315 310 312 316 316 316 317 318 320 321 323 324 324 324 325 325
265 264 264 263 263 262 261 261 262 263 265 266 267 268 270 271 272 273 273 272 272 273 274 274 275 276 276 276 276 278 281 284 284 284 284 284 286 288 289 290 291 291 291 291 292 293 295 296 297 296 295 297 298 298 298 300 301 301 304 307 306 302 303 306 308 306 306 309 312 311 312 314 312 310 313 315 314 315 317 318 320 321 322 323 323 324 324 324
265 264 263 262 261 261 262 262 263 264 264 265 267 270 271 270 271 271 270 269 271 272 273 275 276 276 275 275 277 281 284 284 282 283 284 285 286 288 289 289 290 290 290 291 292 293 294 295 296 295 296 298 299 298 299 300 300 302 306 306 302 302 305 307 306 306 308 310 311 311 312 312 311 311 313 314 313 315 316 318 320 321 321 322 323 323 323 324
264 264 263 263 263 263 262 262 262 263 264 267 271 272 269 268 269 269 268 269 271 272 273 275 275 274 274 276 279 282 283 281 281 282 284 286 287 288 288 289 290 290 291 292 292 292 293 294 295 296 297 298 298 299 300 299 300 304 307 304 302 304 305 305 306 308 309 310 311 311 311 311 311 312 313 313 313 315 316 318 320 320 321 321 322 322 322 323
265 265 264 264 264 262 262 263 264 265 267 271 271 269 268 268 267 267 268 270 271 271 272 272 272 273 275 278 280 280 280 279 281 283 284 285 287 287 288 289 290 291 293 293 292 292 293 293 294 295 296 297 298 299 299 299 301 305 305 303 303 304 305 305 307 308 309 310 310 310 311 311 311 311 312 312 313 315 317 318 319 319 320 320 321 321 322 322
Height
10854 10855 10856 10857 10857 10858 10858 10859 10859 10859 10859 10859 10859 10859 10859 10859 10859 10858 10858 10858 10857 10856 10855 10854 10853 10852 10851 10850 10849 10848 10847 10845 10844 10842 10840 10838 10835 10833 10831 10828 10826 10824 10822 10820 10819 10817 10816 10814 10813 10811 10810 10808 10807 10807 10806 10804 10803 10802 10800 10797 10795 10793 10792 10791 10790 10788 10788 10789 10788 10787 10786 10785 10785 10784 10781 10778 10775 10774 10773 10771 10770 10767 10765 10763 10761 10759 10757 10754
10852 10853 10854 10855 10855 10856 10856 10857 10857 10857 10857 10857 10857 10857 10857 10857 10857 10856 10856 10856 10855 10854 10853 10852 10851 10850 10849 10848 10847 10846 10845 10844 10842 10840 10838 10836 10833 10831 10829 10827 10824 10822 10820 10818 10816 10815 10814 10812 10810 10809 10808 10806 10805 10804 10803 10802 10800 10799 10797 10795 10793 10791 10789 10789 10788 10785 10785 10785 10785 10785 10784 10781 10781 10780 10778 10775 10772 10771 10770 10769 10767 10764 10762 10760 10759 10757 10755 10752
10850 10851 10851 10853 10853 10854 10854 10855 10855 10855 10855 10855 10855 10855 10855 10855 10855 10854 10854 10854 10853 10853 10852 10851 10850 10849 10848 10846 10845 10844 10843 10842 10841 10839 10837 10834 10832 10829 10827 10825 10823 10821 10819 10816 10814 10812 10811 10809 10807 10805 10804 10803 10802 10801 10800 10798 10797 10795 10794 10792 10790 10788 10787 10787 10785 10783 10782 10781 10781 10781 10781 10779 10777 10776 10773 10770 10768 10767 10767 10766 10764 10761 10759 10757 10755 10753 10751 10749
10847 10848 10849 10850 10851 10852 10852 10852 10852 10853 10853 10852 10852 10852 10853 10853 10852 10852 10852 10852 10852 10851 10850 10849 10848 10847 10846 10845 10844 10843 10842 10840 10839 10837 10835 10833 10830 10828 10825 10823 10821 10820 10817 10815 10812 10810 10808 10806 10804 10802 10800 10798 10797 10797 10796 10795 10793 10791 10790 10789 10787 10784 10784 10784 10782 10780 10779 10778 10778 10778 10778 10776 10772 10770 10769 10766 10763 10763 10763 10763 10761 10759 10756 10754 10752 10750 10748 10746
10845 10845 10846 10847 10848 10849 10850 10850 10850 10850 10850 10850 10850 10850 10850 10850 10850 10850 10850 10850 10849 10849 10848 10847 10846 10845 10844 10843 10842 10841 10840 10839 10837 10836 10834 10831 10829 10826 10824 10822 10820 10818 10815 10813 10811 10808 10806 10803 10801 10799 10797 10795 10793 10792 10792 10791 10790 10787 10785 10786 10784 10781 10780 10781 10779 10777 10776 10776 10775 10775 10775 10774 10770 10765 10764 10762 10758 10758 10758 10758 10756 10754 10752 10749 10747 10745 10743 10741
10842 10843 10844 10845 10846 10846 10847 10847 10847 10848 10848 10848 10847 10847 10847 10847 10847 10847 10847 10847 10847 10847 10846 10845 10844 10843 10842 10841 10840 10839 10838 10837 10836 10834 10832 10830 10827 10825 10822 10820 10818 10815 10813 10810 10808 10806 10803 10800 10798 10796 10793 10792 10790 10788 10788 10787 10786 10783 10780 10781 10780 10778 10777 10777 10776 10775 10774 10774 10773 10772 10772 10772 10768 10763 10760 10757 10754 10753 10753 10752 10750 10748 10746 10743 10741 10739 10738 10735
10839 10840 10841 10842 10843 10843 10844 10844 10845 10845 10845 10845 10845 10845 10845 10845 10844 10845 10845 10845 10845 10844 10844 10843 10842 10841 10840 10839 10838 10837 10836 10835 10834 10832 10830 10828 10825 10822 10820 10818 10816 10813 10810 10808 10806 10804 10801 10798 10795 10793 10791 10789 10787 10786 10785 10783 10783 10781 10777 10776 10776 10775 10774 10773 10773 10772 10771 10771 10771 10770 10769 10769 10767 10761 10757 10752 10750 10749 10748 10747 10745 10743 10741 10737 10735 10733 10732 10730
10836 10837 10838 10839 10839 10840 10841 10842 10842 10842 10842 10842 10842 10842 10842 10842 10842 10842 10842 10842 10842 10842 10841 10840 10840 10839 10838 10837 10836 10835 10834 10833 10831 10830 10828 10825 10823 10820 10817 10815 10813 10810 10807 10805 10804 10801 10799 10797 10794 10791 10788 10787 10785 10784 10782 10781 10780 10778 10776 10773 10772 10772 10772 10771 10770 10769 10769 10769 10768 10767 10766 10766 10764 10761 10755 10749 10746 10745 10744 10743 10741 10739 10736 10733 10731 10729 10727 10725
10833 10834 10835 10835 10836 10837 10838 10839 10839 10839 10839 10839 10839 10839 10839 10839 10839 10839 10839 10840 10840 10839 10838 10838 10837 10836 10835 10834 10833 10832 10832 10830 10829 10827 10825 10823 10820 10818 10815 10812 10810 10807 10804 10802 10800 10798 10796 10794 10792 10789 10786 10784 10783 10781 10780 10779 10777 10776 10773 10771 10769 10768 10769 10768 10767 10767 10766 10766 10765 10764 10763 10761 10760 10759 10754 10747 10744 10741 10739 10737 10736 10734 10732 10729 10727 10725 10722 10719
10830 10831 10832 10832 10833 10834 10835 10835 10836 10836 10836 10836 10836 10836 10836 10836 10836 10836 10837 10837 10837 10836 10836 10835 10834 10834 10833 10831 10830 10829 10829 10828 10826 10824 10822 10820 10818 10815 10812 10809 10806 10804 10801 10799 10797 10795 10793 10791 10789 10786 10784 10782 10780 10779 10778 10777 10775 10774 10771 10769 10767 10765 10765 10765 10764 10763 10763 10763 10762 10761 10760 10758 10756 10755 10751 10745 10742 10738 10735 10732 10730 10729 10726 10723 10721 10719 10717 10714
10827 10828 10828 10829 10830 10830 10831 10832 10832 10833 10833 10833 10833 10833 10833 10834 10834 10834 10834 10834 10834 10833 10833 10832 10831 10830 10830 10829 10828 10826 10825 10824 10823 10821 10819 10817 10815 10813 10810 10807 10804 10801 10798 10796 10794 10791 10789 10788 10786 10784 10782 10780 10778 10776 10775 10774 10773 10772 10770 10767 10765 10763 10762 10761 10760 10759 10759 10759 10758 10757 10756 10755 10754 10752 10747 10743 10739 10735 10731 10728 10725 10723 10720 10717 10715 10713 10711 10709
10823 10824 10825 10825 10826 10827 10827 10828 10829 10829 10830 10830 10830 10830 10830 10831 10831 10831 10831 10831 10831 10831 10830 10829 10828 10827 10827 10826 10824 10823 10822 10821 10820 10818 10816 10814 10812 10810 10807 10804 10801 10798 10796 10793 10791 10789 10787 10785 10783 10782 10779 10778 10776 10774 10772 10771 10770 10770 10768 10766 10763 10761 10760 10759 10757 10756 10755 10755 10755 10755 10752 10751 10750 10748 10744 10740 10736 10732 10728 10724 10721 10718 10715 10712 10710 10708 10706 10704
10820 10821 10821 10822 10823 10823 10824 10824 10825 10826 10826 10827 10827 10827 10827 10827 10827 10827 10828 10828 10828 10828 10827 10826 10825 10824 10824 10822 10821 10820 10819 10818 10816 10814 10813 10811 10809 10807 10804 10802 10799 10796 10793 10790 10788 10786 10784 10782 10780 10779 10777 10775 10774 10772 10770 10768 10767 10766 10765 10763 10761 10758 10756 10755 10754 10752 10751 10750 10750 10751 10749 10746 10745 10744 10741 10737 10732 10728 10724 10721 10717 10714 10711 10709 10706 10704 10701 10698
10816 10817 10817 10818 10819 10819 10820 10821 10821 10822 10823 10823 10823 10824 10824 10824 10824 10824 10824 10824 10825 10825 10824 10824 10822 10820 10820 10819 10818 10817 10816 10814 10812 10811 10809 10808 10806 10804 10801 10799 10796 10793 10791 10788 10785 10783 10781 10779 10777 10775 10774 10772 10771 10769 10768 10766 10764 10763 10762 10761 10759 10756 10754 10751 10749 10747 10746 10744 10743 10743 10743 10741 10739 10737 10735 10733 10728 10724 10721 10717 10714 10711 10708 10705 10702 10700 10697 10693
10812 10813 10813 10814 10815 10815 10816 10817 10818 10818 10819 10819 10820 10821 10821 10821 10821 10821 10821 10821 10821 10821 10821 10821 10819 10817 10816 10815 10815 10813 10812 10811 10809 10807 10805 10804 10802 10800 10798 10795 10793 10790 10788 10785 10782 10780 10778 10777 10775 10772 10771 10769 10767 10766 10765 10763 10761 10759 10758 10757 10756 10754 10752 10750 10746 10743 10740 10739 10737 10736 10736 10735 10734 10732 10729 10727 10724 10720 10717 10713 10710 10706 10702 10698 10696 10694 10690 10686
10808 10808 10809 10810 10811 10812 10812 10813 10814 10814 10815 10816 10816 10817 10817 10817 10817 10818 10818 10817 10818 10818 10818 10817 10816 10815 10812 10811 10811 10810 10808 10806 10805 10803 10801 10800 10798 10796 10795 10792 10789 10787 10785 10783 10780 10777 10775 10774 10772 10770 10768 10766 10764 10763 10761 10759 10758 10756 10753 10751 10751 10750 10749 10748 10745 10741 10738 10737 10735 10733 10732 10730 10730 10728 10725 10722 10718 10714 10710 10706 10703 10699 10694 10690 10687 10685 10682 10678
10803 10804 10805 10806 10807 10808 10808 10810 10810 10811 10812 10812 10813 10813 10814 10814 10814 10814 10814 10814 10814 10814 10814 10813 10813 10811 10809 10808 10807 10805 10804 10802 10801 10799 10797 10796 10794 10792 10791 10789 10786 10783 10781 10779 10777 10773 10772 10771 10768 10766 10764 10762 10761 10760 10758 10756 10754 10753 10751 10748 10747 10745 10744 10744 10743 10740 10737 10735 10732 10730 10729 10726 10724 10723 10721 10716 10711 10706 10702 10698 10695 10691 10686 10683 10680 10678 10675 10672
10799 10800 10801 10802 10803 10804 10805 10806 10807 10807 10808 10808 10809 10809 10810 10811 10811 10811 10811 10811 10812 10811 10810 10809 10809 10808 10805 10804 10803 10802 10800 10798 10797 10795 10794 10792 10790 10788 10787 10785 10782 10780 10777 10775 10773 10770 10767 10766 10764 10762 10761 10759 10758 10757 10756 10754 10751 10749 10748 10746 10744 10742 10739 10739 10739 10737 10735 10733 10728 10725 10724 10720 10716 10716 10714 10710 10705 10700 10696 10693 10689 10685 10681 10678 10675 10672 10670 10666
10796 10796 10797 10798 10799 10800 10801 10802 10803 10804 10804 10805 10805 10806 10806 10807 10808 10808 10807 10808 10808 10809 10807 10805 10805 10804 10802 10800 10799 10798 10796 10794 10793 10791 10790 10788 10787 10785 10783 10781 10778 10777 10774 10771 10769 10767 10764 10763 10761 10759 10757 10755 10754 10753 10752 10750 10748 10746 10744 10742 10740 10738 10734 10732 10732 10731 10728 10728 10723 10720 10719 10714 10709 10708 10708 10705 10700 10695 10692 10688 10684 10681 10677 10673 10670 10667 10663 10660
10792 10792 10793 10794 10795 10796 10797 10798 10799 10800 10801 10801 10801 10802 10803 10803 10804 10805 10804 10804 10805 10805 10804 10802 10801 10799 10798 10797 10795 10794 10792 10791 10789 10788 10786 10784 10783 10781 10779 10777 10775 10773 10771 10769 10766 10763 10761 10760 10757 10755 10753 10751 10750 10749 10747 10745 10743 10741 10739 10737 10735 10733 10730 10726 10725 10725 10722 10721 10718 10714 10714 10709 10704 10704 10703 10699 10695 10691 10687 10683 10679 10675 10671 10668 10664 10661 10657 10653
10787 10788 10789 10790 10791 10792 10793 10794 10795 10796 10797 10797 10797 10798 10799 10799 10800 10801 10801 10800 10800 10801 10800 10799 10797 10795 10795 10793 10792 10791 10789 10787 10785 10784 10782 10780 10779 10777 10775 10773 10771 10769 10767 10765 10763 10759 10757 10756 10753 10751 10749 10747 10746 10745 10743 10740 10738 10736 10734 10732 10729 10728 10727 10722 10720 10720 10718 10716 10713 10710 10710 10705 10700 10699 10697 10693 10689 10686 10682 10678 10674 10670 10665 10662 10658 10654 10650 10646
10783 10784 10785 10786 10787 10788 10789 10790 10791 10792 10793 10793 10793 10794 10795 10796 10797 10798 10798 10796 10795 10796 10795 10794 10793 10792 10791 10790 10788 10787 10785 10782 10781 10779 10778 10776 10774 10773 10771 10769 10767 10765 10762 10760 10759 10756 10753 10752 10750 10747 10745 10743 10742 10741 10739 10735 10733 10731 10729 10728 10724 10722 10722 10719 10715 10716 10714 10712 10709 10708 10707 10702 10696 10693 10689 10685 10683 10680 10676 10673 10669 10664 10660 10656 10652 10648 10644 10639
10780 10780 10781 10782 10783 10784 10786 10787 10787 10789 10789 10789 10789 10790 10791 10792 10793 10794 10794 10794 10791 10789 10788 10788 10787 10786 10785 10785 10784 10782 10780 10778 10775 10774 10773 10772 10769 10768 10767 10765 10763 10761 10759 10757 10755 10752 10749 10748 10746 10743 10741 10738 10737 10736 10734 10732 10728 10724 10723 10722 10719 10716 10716 10715 10712 10711 10709 10706 10705 10704 10704 10700 10694 10689 10683 10678 10676 10673 10669 10666 10663 10659 10654 10651 10647 10642 10637 10632
10776 10776 10777 10778 10779 10780 10782 10783 10784 10785 10785 10785 10785 10786 10786 10787 10788 10789 10790 10792 10790 10784 10782 10781 10781 10780 10780 10779 10778 10777 10775 10773 10770 10769 10768 10767 10765 10763 10762 10761 10759 10757 10755 10753 10751 10748 10746 10744 10742 10739 10736 10733 10731 10730 10729 10728 10724 10720 10717 10716 10715 10711 10709 10709 10708 10707 10704 10699 10697 10695 10698 10700 10692 10683 10676 10671 10669 10666 10662 10660 10657 10653 10649 10646 10642 10637 10630 10625
10772 10772 10773 10774 10775 10777 10778 10780 10780 10780 10781 10781 10781 10781 10782 10782 10784 10785 10785 10788 10787 10782 10778 10776 10774 10774 10774 10773 10772 10771 10770 10768 10766 10764 10763 10761 10760 10759 10757 10757 10756 10753 10752 10750 10747 10744 10742 10739 10738 10735 10731 10728 10726 10724 10723 10722 10720 10716 10712 10709 10708 10705 10703 10701 10700 10701 10699 10696 10692 10683 10687 10698 10692 10680 10672 10667 10664 10662 10657 10654 10651 10647 10643 10639 10634 10629 10623 10618
10767 10768 10769 10770 10771 10772 10774 10775 10775 10776 10777 10776 10777 10777 10777 10777 10779 10780 10781 10783 10784 10779 10773 10771 10769 10769 10769 10767 10767 10766 10765 10763 10761 10759 10757 10756 10755 10753 10752 10752 10752 10750 10748 10747 10743 10740 10738 10735 10732 10730 10727 10723 10721 10719 10717 10715 10714 10711 10707 10703 10701 10699 10697 10695 10693 10693 10692 10693 10687 10674 10675 10691 10690 10677 10667 10662 10659 10655 10650 10647 10644 10640 10635 10631 10626 10620 10615 10610
10763 10764 10764 10765 10767 10768 10769 10770 10770 10771 10772 10772 10773 10772 10772 10773 10773 10775 10776 10778 10781 10775 10769 10766 10764 10763 10763 10762 10762 10761 10759 10757 10756 10755 10752 10751 10749 10748 10747 10746 10746 10746 10744 10743 10740 10736 10735 10731 10727 10725 10722 10718 10716 10713 10711 10709 10707 10705 10702 10699 10696 10693 10692 10689 10688 10687 10686 10687 10682 10667 10663 10677 10682 10671 10659 10654 10651 10646 10641 10638 10636 10632 10627 10622 10617 10612 10606 10601
10758 10759 10760 10761 10761 10762 10764 10764 10764 10765 10766 10767 10767 10767 10767 10768 10768 10770 10770 10773 10777 10771 10764 10761 10760 10758 10757 10757 10757 10756 10754 10752 10751 10750 10747 10746 10744 10742 10741 10740 10740 10740 10738 10738 10736 10731 10730 10727 10723 10721 10717 10714 10711 10707 10705 10702 10700 10698 10696 10694 10691 10688 10685 10682 10682 10681 10680 10682 10677 10665 10658 10664 10672 10664 10650 10647 10643 10636 10632 10630 10627 10623 10619 10614 10608 10603 10598 10591
10752 10753 10755 10755 10756 10757 10757 10758 10759 10759 10760 10762 10762 10762 10762 10762 10763 10764 10764 10767 10770 10766 10760 10757 10755 10754 10753 10752 10752 10750 10748 10746 10745 10744 10742 10740 10738 10736 10735 10733 10733 10733 10732 10732 10731 10728 10725 10722 10719 10716 10712 10709 10705 10702 10699 10696 10694 10691 10689 10688 10685 10682 10679 10676 10676 10674 10675 10677 10671 10662 10656 10655 10663 10657 10642 10639 10635 10627 10624 10622 10621 10617 10611 10606 10601 10595 10589 10582
10746 10748 10749 10750 10751 10751 10751 10752 10753 10753 10754 10755 10756 10757 10757 10757 10758 10758 10760 10761 10760 10758 10757 10753 10750 10750 10749 10747 10747 10745 10742 10741 10739 10738 10737 10736 10732 10729 10728 10727 10726 10727 10725 10723 10725 10724 10720 10717 10714 10710 10707 10705 10701 10697 10694 10691 10687 10684 10682 10681 10678 10675 10672 10670 10670 10666 10668 10671 10665 10658 10651 10646 10652 10650 10638 10633 10627 10620 10618 10616 10614 10611 10604 10599 10594 10587 10580 10572
10740 10742 10743 10744 10744 10745 10745 10746 10747 10747 10748 10749 10750 10751 10752 10752 10752 10753 10754 10752 10750 10751 10751 10747 10746 10746 10744 10743 10742 10739 10737 10736 10734 10732 10732 10730 10727 10723 10720 10719 10719 10720 10720 10716 10717 10719 10715 10711 10708 10705 10702 10700 10696 10692 10688 10685 10680 10676 10673 10672 10671 10668 10664 10665 10663 10659 10660 10662 10659 10654 10647 10642 10643 10640 10633 10628 10619 10613 10611 10608 10605 10601 10596 10591 10585 10578 10570 10561
10734 10735 10736 10737 10738 10738 10738 10739 10740 10740 10742 10742 10743 10746 10746 10746 10749 10748 10746 10742 10742 10746 10744 10740 10742 10741 10739 10739 10737 10733 10732 10730 10728 10727 10726 10724 10722 10718 10713 10710 10708 10710 10714 10712 10711 10713 10710 10706 10701 10698 10697 10694 10690 10686 10682 10679 10673 10670 10666 10662 10660 10658 10657 10660 10656 10653 10655 10654 10652 10648 10641 10639 10637 10631 10625 10618 10609 10606 10604 10600 10596 10591 10585 10580 10574 10567 10558 10549
10727 10728 10729 10731 10731 10731 10731 10732 10733 10733 10734 10735 10737 10740 10740 10742 10745 10743 10737 10733 10734 10739 10738 10734 10735 10735 10734 10734 10730 10727 10725 10724 10722 10720 10719 10719 10717 10713 10707 10703 10698 10697 10702 10705 10706 10707 10707 10703 10696 10693 10692 10688 10684 10681 10677 10674 10667 10664 10660 10655 10650 10645 10645 10651 10649 10646 10648 10646 10644 10639 10633 10633 10630 10624 10617 10605 10597 10596 10594 10590 10587 10581 10574 10569 10563 10555 10546 10537
10721 10722 10723 10724 10724 10724 10724 10723 10725 10726 10726 10728 10731 10733 10735 10737 10739 10735 10729 10726 10725 10729 10730 10728 10729 10729 10728 10726 10723 10720 10717 10717 10717 10713 10712 10713 10711 10709 10703 10695 10690 10687 10688 10694 10699 10700 10701 10699 10692 10688 10687 10682 10679 10675 10671 10667 10662 10659 10655 10649 10645 10637 10633 10637 10638 10637 10638 10639 10638 10631 10625 10623 10619 10616 10608 10594 10587 10583 10580 10579 10575 10569 10564 10558 10552 10543 10533 10525
10714 10715 10717 10717 10716 10716 10715 10715 10717 10718 10719 10721 10723 10727 10730 10732 10731 10725 10723 10721 10718 10720 10721 10720 10721 10722 10721 10719 10716 10712 10708 10709 10710 10706 10705 10705 10704 10704 10697 10689 10684 10678 10677 10681 10687 10690 10692 10692 10686 10682 10680 10676 10672 10669 10663 10658 10654 10653 10649 10642 10637 10633 10626 10625 10627 10626 10624 10628 10633 10626 10619 10615 10611 10608 10597 10584 10578 10572 10568 10569 10563 10557 10555 10549 10541 10531 10521 10512
10707 10709 10710 10710 10709 10707 10707 10708 10709 10710 10712 10714 10716 10722 10726 10725 10721 10716 10715 10714 10711 10712 10712 10712 10713 10713 10712 10712 10709 10704 10699 10700 10702 10700 10700 10699 10698 10697 10690 10682 10677 10671 10668 10670 10673 10677 10681 10684 10681 10675 10673 10669 10665 10661 10656 10650 10645 10643 10641 10635 10629 10626 10620 10615 10617 10618 10610 10611 10621 10621 10614 10609 10604 10600 10590 10575 10567 10564 10561 10558 10551 10548 10545 10538 10528 10518 10508 10500
10700 10702 10703 10703 10701 10698 10699 10700 10701 10702 10705 10707 10711 10717 10719 10718 10714 10706 10704 10706 10705 10705 10704 10704 10706 10704 10703 10704 10701 10696 10692 10691 10693 10693 10693 10692 10691 10690 10683 10676 10671 10665 10662 10661 10662 10663 10665 10674 10677 10669 10665 10663 10657 10653 10648 10643 10638 10633 10631 10626 10620 10618 10614 10606 10605 10608 10601 10597 10607 10612 10607 10603 10596 10589 10579 10565 10557 10557 10554 10546 10541 10539 10533 10524 10515 10505 10496 10490
10692 10695 10697 10695 10690 10689 10691 10692 10693 10695 10697 10701 10707 10711 10711 10711 10706 10697 10695 10698 10697 10697 10697 10696 10696 10695 10695 10695 10692 10688 10685 10684 10685 10684 10684 10684 10684 10682 10676 10670 10665 10659 10655 10653 10653 10652 10650 10660 10671 10666 10657 10655 10650 10644 10639 10634 10629 10626 10622 10618 10613 10607 10604 10601 10595 10594 10588 10582 10590 10599 10598 10597 10591 10577 10564 10555 10550 10548 10542 10536 10532 10530 10521 10512 10504 10494 10486 10480
10685 10688 10692 10687 10679 10679 10683 10684 10685 10687 10691 10697 10702 10703 10702 10702 10697 10690 10687 10689 10689 10689 10690 10688 10686 10686 10688 10686 10682 10679 10677 10678 10679 10676 10675 10675 10675 10673 10668 10663 10658 10652 10648 10645 10644 10643 10638 10643 10659 10661 10652 10648 10644 10636 10632 10627 10620 10618 10614 10610 10606 10598 10594 10595 10591 10584 10574 10568 10574 10580 10583 10590 10586 10568 10551 10545 10544 10537 10529 10527 10524 10518 10511 10503 10494 10486 10479 10471
10677 10680 10685 10681 10669 10669 10674 10675 10679 10683 10687 10692 10694 10694 10693 10692 10689 10685 10680 10679 10680 10681 10681 10680 10679 10679 10679 10676 10673 10670 10669 10671 10672 10667 10666 10666 10663 10663 10661 10656 10650 10643 10640 10638 10635 10633 10628 10629 10642 10650 10645 10641 10636 10628 10624 10620 10612 10608 10606 10602 10597 10590 10586 10586 10587 10581 10563 10556 10562 10560 10566 10581 10573 10554 10545 10538 10533 10526 10518 10518 10515 10507 10501 10493 10484 10476 10468 10459
10666 10671 10679 10672 10659 10659 10663 10667 10675 10679 10681 10685 10687 10685 10682 10682 10683 10680 10674 10670 10672 10674 10672 10671 10672 10671 10669 10666 10663 10661 10660 10663 10663 10658 10657 10656 10652 10653 10654 10648 10641 10636 10632 10631 10628 10624 10620 10619 10628 10636 10635 10631 10627 10620 10616 10612 10605 10601 10600 10596 10588 10582 10578 10573 10577 10576 10558 10552 10553 10542 10553 10572 10555 10536 10537 10528 10516 10513 10509 10507 10503 10496 10489 10480 10472 10464 10455 10445
10656 10663 10669 10661 10651 10652 10654 10660 10670 10672 10674 10678 10677 10672 10672 10674 10675 10673 10668 10664 10664 10665 10663 10663 10664 10662 10659 10656 10653 10652 10651 10652 10654 10649 10645 10646 10646 10645 10644 10638 10632 10628 10624 10622 10622 10617 10611 10610 10615 10622 10623 10619 10615 10612 10607 10601 10597 10595 10593 10588 10581 10577 10573 10564 10562 10560 10552 10551 10544 10530 10544 10561 10542 10527 10528 10515 10502 10501 10499 10496 10489 10483 10476 10467 10459 10452 10442 10433
10649 10652 10654 10651 10647 10646 10646 10654 10662 10662 10665 10667 10663 10662 10664 10665 10666 10664 10660 10657 10656 10655 10654 10656 10656 10651 10650 10646 10642 10643 10641 10640 10643 10638 10632 10637 10641 10637 10632 10628 10623 10619 10616 10614 10613 10609 10603 10603 10605 10608 10611 10610 10606 10601 10594 10588 10586 10586 10584 10578 10573 10570 10565 10560 10552 10543 10544 10546 10532 10523 10537 10541 10527 10522 10516 10499 10493 10493 10489 10484 10477 10469 10463 10454 10446 10440 10431 10422
10637 10639 10643 10645 10642 10639 10642 10649 10652 10650 10653 10653 10651 10655 10655 10653 10656 10656 10651 10648 10648 10647 10647 10649 10647 10641 10639 10636 10633 10633 10630 10626 10628 10628 10626 10629 10632 10627 10620 10616 10614 10612 10609 10606 10603 10599 10596 10596 10595 10593 10593 10598 10600 10593 10583 10578 10576 10576 10575 10570 10567 10564 10557 10553 10543 10530 10533 10536 10524 10520 10526 10521 10513 10511 10500 10484 10483 10486 10479 10472 10467 10458 10449 10442 10435 10428 10420 10411
10624 10628 10635 10639 10635 10633 10638 10642 10639 10637 10641 10640 10640 10644 10644 10644 10647 10646 10641 10639 10641 10640 10639 10640 10636 10631 10629 10627 10624 10621 10618 10613 10613 10618 10622 10620 10618 10615 10609 10605 10606 10605 10602 10597 10593 10590 10589 10589 10587 10580 10573 10578 10584 10579 10570 10568 10565 10564 10564 10561 10558 10554 10548 10541 10529 10521 10520 10519 10520 10519 10509 10506 10507 10494 10479 10474 10474 10473 10466 10458 10454 10447 10437 10431 10425 10417 10409 10400
10613 10620 10630 10632 10628 10626 10630 10631 10626 10627 10632 10628 10626 10633 10636 10636 10639 10637 10632 10632 10633 10631 10628 10629 10627 10623 10621 10617 10611 10608 10608 10605 10602 10608 10613 10609 10603 10601 10599 10598 10598 10596 10591 10586 10582 10580 10579 10581 10582 10572 10563 10565 10566 10558 10551 10551 10550 10549 10549 10549 10547 10543 10536 10525 10515 10515 10506 10498 10516 10520 10493 10493 10505 10479 10457 10463 10465 10459 10452 10445 10440 10434 10425 10420 10412 10404 10396 10387
10604 10614 10623 10621 10615 10615 10621 10622 10618 10618 10618 10611 10613 10625 10630 10630 10631 10628 10626 10625 10622 10618 10617 10619 10619 10615 10611 10606 10598 10597 10602 10599 10596 10600 10600 10593 10589 10588 10590 10592 10590 10586 10581 10575 10572 10568 10565 10571 10575 10562 10554 10560 10557 10545 10539 10535 10535 10538 10535 10535 10538 10532 10521 10511 10506 10507 10494 10481 10505 10514 10485 10484 10493 10466 10446 10452 10452 10445 10439 10431 10426 10418 10411 10406 10399 10391 10383 10375
10596 10605 10611 10606 10601 10606 10612 10612 10605 10601 10602 10602 10607 10618 10623 10622 10621 10619 10617 10614 10608 10607 10607 10607 10610 10607 10600 10595 10587 10588 10597 10593 10589 10591 10586 10578 10577 10578 10581 10583 10580 10576 10571 10565 10562 10557 10552 10560 10565 10551 10544 10551 10548 10537 10531 10525 10523 10527 10525 10525 10528 10517 10504 10502 10502 10497 10483 10475 10491 10497 10483 10482 10475 10449 10442 10445 10438 10432 10428 10420 10414 10406 10399 10394 10386 10379 10371 10363
10589 10593 10597 10592 10588 10591 10596 10596 10591 10589 10597 10597 10597 10610 10615 10612 10612 10610 10605 10599 10597 10599 10595 10594 10603 10599 10587 10582 10577 10582 10594 10587 10576 10578 10573 10565 10568 10571 10571 10573 10571 10566 10561 10556 10553 10547 10541 10546 10551 10539 10532 10540 10539 10527 10522 10519 10513 10516 10521 10519 10511 10499 10493 10494 10492 10484 10474 10473 10479 10477 10475 10480 10463 10437 10437 10436 10424 10419 10417 10410 10404 10397 10389 10383 10375 10368 10360 10352
10578 10579 10579 10572 10572 10579 10582 10583 10582 10583 10588 10586 10589 10606 10607 10598 10601 10598 10586 10584 10591 10592 10585 10586 10594 10586 10571 10569 10571 10580 10589 10574 10558 10564 10563 10555 10560 10564 10562 10564 10562 10556 10552 10548 10544 10538 10531 10532 10535 10526 10518 10528 10529 10516 10512 10509 10501 10508 10520 10509 10490 10485 10487 10483 10477 10471 10465 10463 10466 10462 10461 10465 10453 10434 10431 10426 10413 10406 10404 10398 10393 10386 10378 10371 10364 10356 10349 10342
10563 10562 10560 10552 10559 10570 10568 10568 10571 10571 10576 10584 10590 10596 10590 10585 10592 10581 10565 10574 10586 10582 10576 10578 10579 10568 10558 10562 10571 10577 10575 10556 10545 10553 10554 10547 10552 10555 10552 10553 10551 10545 10542 10540 10535 10528 10520 10518 10519 10512 10505 10512 10516 10507 10502 10497 10491 10503 10512 10495 10475 10473 10475 10470 10465 10462 10456 10450 10452 10451 10447 10445 10438 10428 10423 10416 10405 10398 10392 10387 10381 10374 10366 10360 10352 10345 10338 10331
10546 10543 10545 10536 10538 10551 10555 10557 10558 10558 10572 10587 10582 10575 10574 10577 10577 10562 10552 10567 10577 10570 10564 10562 10559 10555 10553 10559 10567 10566 10555 10541 10537 10544 10544 10540 10542 10543 10542 10542 10540 10536 10534 10529 10522 10518 10512 10507 10505 10499 10491 10494 10501 10496 10489 10484 10486 10496 10497 10481 10468 10464 10460 10457 10456 10455 10447 10440 10437 10437 10434 10429 10422 10417 10412 10405 10396 10390 10384 10377 10370 10363 10356 10350 10342 10336 10328 10321